| time (UTC) | temp F | wind direction | speed knots | gust knots | rain 1hr in | rain 24hr in | rain mn in | humidity % | barometer mb |
| 20260506001532 | 32 | 35 | 0.0 | 0.0 | 0.00 | 0.00 | 0.00 | 82 | 1011.9 |
| 20260506000028 | 33 | 35 | 0.0 | 0.0 | 0.00 | 0.00 | 0.00 | 81 | 1011.9 |
| 20260505234534 | 32 | 35 | 0.0 | 0.0 | 0.00 | 0.00 | 0.00 | 81 | 1011.9 |
| 20260505233026 | 32 | 35 | 0.0 | 0.0 | 0.00 | 0.00 | 0.00 | 82 | 1012.0 |
| 20260505231525 | 33 | 35 | 0.0 | 0.0 | 0.00 | 0.00 | 0.00 | 80 | 1012.1 |
| 20260505230038 | 33 | 35 | 0.0 | 0.0 | 0.00 | 0.00 | 0.00 | 82 | 1011.9 |
| 20260505224522 | 34 | 35 | 0.0 | 0.0 | 0.00 | 0.00 | 0.00 | 79 | 1012.1 |
| 20260505223020 | 34 | 35 | 0.0 | 0.0 | 0.00 | 0.00 | 0.00 | 79 | 1012.0 |
| 20260505221519 | 34 | 35 | 0.0 | 0.0 | 0.00 | 0.00 | 0.00 | 79 | 1012.1 |
| 20260505220014 | 36 | 35 | 0.0 | 0.0 | 0.00 | 0.00 | 0.00 | 77 | 1012.1 |
| 20260505214514 | 36 | 35 | 0.0 | 0.0 | 0.00 | 0.00 | 0.00 | 76 | 1012.2 |
| 20260505213012 | 35 | 35 | 0.0 | 0.0 | 0.00 | 0.00 | 0.00 | 77 | 1012.1 |
| 20260505211512 | 36 | 35 | 0.0 | 0.0 | 0.00 | 0.00 | 0.00 | 75 | 1012.1 |
| 20260505210009 | 37 | 35 | 0.0 | 0.0 | 0.00 | 0.00 | 0.00 | 73 | 1012.1 |
| 20260505204507 | 38 | 35 | 0.0 | 2.6 | 0.00 | 0.00 | 0.00 | 72 | 1012.1 |
| 20260505203006 | 38 | 265 | 0.0 | 0.9 | 0.00 | 0.00 | 0.00 | 72 | 1012.1 |
| 20260505201506 | 38 | 265 | 0.0 | 0.9 | 0.00 | 0.00 | 0.00 | 71 | 1012.1 |
| 20260505200005 | 39 | 265 | 0.0 | 0.9 | 0.00 | 0.00 | 0.00 | 70 | 1012.1 |
| 20260505194612 | 40 | 265 | 0.0 | 0.0 | 0.00 | 0.00 | 0.00 | 68 | 1012.0 |
| 20260505193054 | 40 | 296 | 0.0 | 0.9 | 0.00 | 0.00 | 0.00 | 66 | 1011.9 |
| 20260505191552 | 41 | 296 | 0.0 | 0.9 | 0.00 | 0.00 | 0.00 | 64 | 1011.9 |
| 20260505190049 | 43 | 306 | 0.0 | 0.9 | 0.00 | 0.00 | 0.00 | 60 | 1011.8 |
| 20260505184546 | 44 | 254 | 0.0 | 1.7 | 0.00 | 0.00 | 0.00 | 60 | 1011.7 |
| 20260505183056 | 44 | 268 | 0.0 | 1.7 | 0.00 | 0.00 | 0.00 | 58 | 1011.6 |
| 20260505181544 | 46 | 257 | 0.0 | 2.6 | 0.00 | 0.00 | 0.00 | 55 | 1011.5 |
| 20260505180045 | 46 | 247 | 0.0 | 1.7 | 0.00 | 0.00 | 0.00 | 53 | 1011.5 |
| 20260505174548 | 47 | 255 | 0.0 | 5.2 | 0.00 | 0.00 | 0.00 | 51 | 1011.5 |
| 20260505173047 | 48 | 246 | 0.9 | 3.5 | 0.00 | 0.00 | 0.00 | 50 | 1011.4 |
| 20260505171542 | 48 | 266 | 1.7 | 4.3 | 0.00 | 0.00 | 0.00 | 49 | 1011.5 |
| 20260505170043 | 49 | 314 | 0.9 | 5.2 | 0.00 | 0.00 | 0.00 | 49 | 1011.5 |
| 20260505164556 | 49 | 322 | 0.9 | 5.2 | 0.00 | 0.00 | 0.00 | 50 | 1011.5 |
| 20260505163048 | 50 | 86 | 0.9 | 3.5 | 0.00 | 0.00 | 0.00 | 50 | 1011.7 |
| 20260505161544 | 50 | 9 | 1.7 | 5.2 | 0.00 | 0.00 | 0.00 | 49 | 1011.7 |
| 20260505153050 | 50 | 337 | 1.7 | 9.6 | 0.00 | 0.00 | 0.00 | 49 | 1011.8 |
| 20260505151545 | 51 | 317 | 0.9 | 6.1 | 0.00 | 0.00 | 0.00 | 47 | 1011.8 |
| 20260505124536 | 51 | 223 | 2.6 | 7.8 | 0.00 | 0.00 | 0.00 | 48 | 1011.9 |
| 20260505123032 | 52 | 259 | 2.6 | 9.6 | 0.00 | 0.00 | 0.00 | 45 | 1011.8 |
| 20260505121536 | 52 | 284 | 3.5 | 9.6 | 0.00 | 0.00 | 0.00 | 47 | 1011.8 |
| 20260505120032 | 52 | 350 | 1.7 | 9.6 | 0.00 | 0.00 | 0.00 | 47 | 1011.7 |
| 20260505114538 | 52 | 275 | 2.6 | 9.6 | 0.00 | 0.00 | 0.00 | 47 | 1011.8 |
| 20260505113030 | 52 | 299 | 1.7 | 7.8 | 0.00 | 0.00 | 0.00 | 48 | 1011.7 |
| 20260505111535 | 53 | 269 | 1.7 | 7.8 | 0.00 | 0.00 | 0.00 | 47 | 1011.7 |
| 20260505101523 | 52 | 295 | 1.7 | 7.8 | 0.00 | 0.00 | 0.00 | 45 | 1011.5 |
| 20260505100020 | 50 | 296 | 2.6 | 8.7 | 0.00 | 0.00 | 0.00 | 47 | 1011.6 |
| 20260505094518 | 49 | 318 | 1.7 | 10.4 | 0.00 | 0.00 | 0.00 | 47 | 1011.5 |
| 20260505093016 | 50 | 234 | 3.5 | 10.4 | 0.00 | 0.00 | 0.00 | 50 | 1011.6 |
| 20260505091512 | 51 | 258 | 1.7 | 5.2 | 0.00 | 0.00 | 0.00 | 47 | 1011.4 |
| 20260505090010 | 50 | 254 | 1.7 | 6.1 | 0.00 | 0.00 | 0.00 | 45 | 1011.3 |
| 20260505084507 | 49 | 310 | 0.9 | 6.1 | 0.00 | 0.00 | 0.00 | 47 | 1011.0 |
| 20260505083003 | 49 | 224 | 1.7 | 7.8 | 0.00 | 0.00 | 0.00 | 46 | 1011.0 |
| 20260505081605 | 49 | 248 | 2.6 | 7.8 | 0.00 | 0.00 | 0.00 | 46 | 1010.9 |
| 20260505080057 | 49 | 315 | 1.7 | 10.4 | 0.00 | 0.00 | 0.00 | 47 | 1010.9 |
| 20260505074608 | 49 | 275 | 1.7 | 7.8 | 0.00 | 0.00 | 0.00 | 45 | 1010.9 |
| 20260505073053 | 48 | 317 | 1.7 | 7.8 | 0.00 | 0.00 | 0.00 | 50 | 1010.7 |
| 20260505071545 | 47 | 272 | 1.7 | 4.3 | 0.00 | 0.00 | 0.00 | 52 | 1010.5 |
| 20260505070042 | 46 | 229 | 1.7 | 6.1 | 0.00 | 0.00 | 0.00 | 55 | 1010.4 |
| 20260505064539 | 46 | 346 | 2.6 | 7.0 | 0.00 | 0.00 | 0.00 | 57 | 1010.2 |
| 20260505063042 | 46 | 230 | 0.9 | 7.0 | 0.00 | 0.00 | 0.00 | 58 | 1010.2 |
| 20260505061555 | 46 | 313 | 2.6 | 7.0 | 0.00 | 0.00 | 0.00 | 57 | 1010.2 |
| 20260505060034 | 46 | 26 | 2.6 | 7.8 | 0.00 | 0.00 | 0.00 | 58 | 1010.0 |
| 20260505054532 | 45 | 352 | 0.9 | 7.8 | 0.00 | 0.00 | 0.00 | 61 | 1010.0 |
| 20260505053030 | 45 | 359 | 2.6 | 5.2 | 0.00 | 0.00 | 0.00 | 64 | 1009.9 |
| 20260505051532 | 45 | 359 | 1.7 | 5.2 | 0.00 | 0.00 | 0.00 | 64 | 1009.9 |
| 20260505041523 | 44 | 15 | 0.9 | 6.1 | 0.00 | 0.00 | 0.00 | 67 | 1009.4 |
| 20260505040023 | 44 | 281 | 2.6 | 7.8 | 0.00 | 0.00 | 0.00 | 67 | 1009.3 |
| 20260505034546 | 45 | 325 | 0.9 | 8.7 | 0.00 | 0.00 | 0.00 | 69 | 1009.2 |